Regional Weather Roundup
Issued by NWS Green Bay, WI

Home | Current Version | Previous Version | Graphics & Text | Print | Product List | Glossary Off
Versions: 1 2 3 4 5 6 7 8 9 10 11 12 13 14 15 16 17 18 19 20 21 22 23 24 25 26 27 28 29 30 31 32 33 34 35 36 37 38 39 40 41 42 43 44 45 46 47 48 49 50

801
ASUS43 KGRB 271111
RWRGRB

NORTH-CENTRAL AND NORTHEAST WISCONSIN REGIONAL WEATHER ROUNDUP
NATIONAL WEATHER SERVICE GREEN BAY WI
600 AM CDT MON MAR 27 2017

WIZ005-009-010>012-018-019-271200-
NORTH CENTRAL WISCONSIN

CITY           SKY/WX    TMP DP  RH WIND       PRES   REMARKS
IRONWOOD       FOG       32  31  96 NW3       29.94R VSB 1/2
MANITOWISH WTR CLOUDY    31  31 100 N6        29.91R FOG
ARBOR VITAE    CLOUDY    33  33  96 N6        29.90R
EAGLE RIVER    CLOUDY    32  32 100 NW3       29.91R
LAND O LAKES   CLOUDY    32  32 100 NW3       29.92R
RHINELANDER    CLOUDY    34  33  96 VRB5      29.91R
PHILLIPS       CLOUDY    32  32 100 CALM      29.91R
ANTIGO         CLOUDY    33  33 100 NW6       29.90R FOG
TOMAHAWK       LGT RAIN  32  32  99 CALM      29.92R
MERRILL        CLOUDY    34  34 100 CALM      29.92R
$$

WIZ013-073-271200-
NORTHEAST WISCONSIN

CITY           SKY/WX    TMP DP  RH WIND       PRES   REMARKS
IRON MOUNTAIN  CLOUDY    34  31  88 NW7       29.88R
MARINETTE        N/A    N/A N/A N/A MISG        N/A
OCONTO         CLOUDY    36  35  96 W3        29.92R
$$

WIZ017-030-035>037-045-271200-
CENTRAL WISCONSIN

CITY           SKY/WX    TMP DP  RH WIND       PRES   REMARKS
MEDFORD        CLOUDY    33  32  96 N3        29.91R
WAUSAU         CLOUDY    36  34  92 N6        29.89S
MOSINEE        CLOUDY    37  37 100 N7        29.91S FOG
MARSHFIELD     CLOUDY    37  36  96 N9        29.89S FOG
WISC RAPIDS    CLOUDY    39  39 100 NE3       29.91S
STEVENS POINT  CLOUDY    37  37 100 NW3       29.91R
WAUPACA        CLOUDY    40  39  97 CALM      29.91R FOG
SHAWANO        CLOUDY    39  37  95 CALM      29.92R
CLINTONVILLE   CLOUDY    36  36 100 CALM      29.90S
WAUTOMA        CLOUDY    39  39 100 W5        29.92R
$$

WIZ038-039-048-051-271200-
FOX VALLEY

CITY           SKY/WX    TMP DP  RH WIND       PRES   REMARKS
NWS GREEN BAY  CLOUDY    38  38 100 NW5       29.91R
APPLETON       FOG       37  37 100 VRB3      29.88F VSB 1/2
OSHKOSH        CLOUDY    38  37  97 NW5       29.90R
FOND DU LAC    CLOUDY    39  36  89 CALM      29.91R
$$

WIZ022-050-052-271200-
EAST CENTRAL WISCONSIN

CITY           SKY/WX    TMP DP  RH WIND       PRES   REMARKS
EPHRAIM        CLOUDY    34  34 100 N7        29.89R FOG
WASHINGTON ISL CLOUDY    33  32  96 NW5       29.90R
STURGEON BAY   NOT AVBL
MANITOWOC      CLOUDY    38  36  92 NW6       29.91R
SHEBOYGAN      CLOUDY    38  36  92 NW6       29.90R
$$

LMZ563-521-522-541>543-271200-
LAKESHORE

STATION/POSITION TIME  TEMP    WIND        PRES    VSBY  WAVE
                       AIR SEA DIR/SP/G                  HT/PER
                 (UTC) (F)     (DEG/KT/KT) (MB)    (MI)  (FT/S)
SHEBOYGAN LKSHOR 1100   38     310/  5/  6 1013.0R
KEWAUNEE LKSHORE 1048   37     300/  2/  5 1012.3R
NORTHPORT PIER   1040   34     290/  7/ 10 1012.5R
SISTER BAY LKSHO 0951   34        CALM       N/A
CHAMBERS ISLAND  1040   35     290/  3/  6 1012.2R
MENOMINEE LKSHOR 1048   36     270/  3/  5 1012.2R
$$




USA.gov is the U.S. government's official web portal to all federal, state and local government web resources and services.